This is the latest recevied weather packets stored in our database for station/object LA1HSA-13. If no packets are shown the sender has not sent any weather packets the latest 10 day(s).
| Time | Temp. | Humidity | Pressure | Rain* | Wind** | Luminosity | Snow |
|---|---|---|---|---|---|---|---|
| 1777393804 | 13.89° C | 40% | 1027.2 hPa | 0 mm | - | - | - |
| 1777393204 | 13.89° C | 39% | 1027.3 hPa | 0 mm | - | - | - |
| 1777392603 | 13.89° C | 42% | 1027.3 hPa | 0 mm | - | - | - |
| 1777392004 | 13.33° C | 39% | 1027.2 hPa | 0 mm | - | - | - |
| 1777391403 | 13.33° C | 40% | 1027.3 hPa | 0 mm | - | - | - |
| 1777390803 | 13.33° C | 39% | 1027.3 hPa | 0 mm | - | - | - |
| 1777390204 | 13.33° C | 40% | 1027.3 hPa | 0 mm | - | - | - |
| 1777389603 | 13.33° C | 41% | 1027.6 hPa | 0 mm | - | - | - |
| 1777389004 | 13.89° C | 40% | 1027.7 hPa | 0 mm | - | - | - |
| 1777388403 | 12.78° C | 41% | 1027.7 hPa | 0 mm | - | - | - |
| 1777387803 | 12.78° C | 42% | 1027.7 hPa | 0 mm | - | - | - |
| 1777387204 | 12.22° C | 41% | 1028 hPa | 0 mm | - | - | - |
| 1777386603 | 12.78° C | 41% | 1028.1 hPa | 0 mm | - | - | - |
| 1777386003 | 12.78° C | 41% | 1028.2 hPa | 0 mm | - | - | - |
| 1777385403 | 13.89° C | 40% | 1028.1 hPa | 0 mm | - | - | - |
| 1777384803 | 13.33° C | 39% | 1028.1 hPa | 0 mm | - | - | - |
| 1777384203 | 13.33° C | 41% | 1028.3 hPa | 0 mm | - | - | - |
| 1777383603 | 13.89° C | 40% | 1028.6 hPa | 0 mm | - | - | - |
| 1777383003 | 13.33° C | 40% | 1028.5 hPa | 0 mm | - | - | - |
| 1777382403 | 12.22° C | 41% | 1028.7 hPa | 0 mm | - | - | - |
| 1777381803 | 12.78° C | 40% | 1028.8 hPa | 0 mm | - | - | - |
| 1777381204 | 12.78° C | 41% | 1028.8 hPa | 0 mm | - | - | - |
| 1777380603 | 12.22° C | 41% | 1028.9 hPa | 0 mm | - | - | - |
| 1777380003 | 12.78° C | 43% | 1028.7 hPa | 0 mm | - | - | - |
| 1777379404 | 12.22° C | 42% | 1029 hPa | 0 mm | - | - | - |
* Rain latest hour (hover to see other rain measurements)
** Current wind speed in m/s (hover to see current wind gust speed)